TimeCST,TemperatureF,Dew PointF,Humidity,Sea Level PressureIn,VisibilityMPH,Wind Direction,Wind SpeedMPH,Gust SpeedMPH,PrecipitationIn,Events,Conditions,WindDirDegrees,DateUTC
12:52 AM,41.0,35.1,79,29.78,10.0,West,21.9,26.5,N/A,,Clear,270,2013-11-18 06:52:00
1:52 AM,39.9,35.1,83,29.80,10.0,West,19.6,25.3,N/A,,Clear,270,2013-11-18 07:52:00
2:52 AM,39.0,34.0,82,29.83,10.0,West,18.4,-,N/A,,Clear,260,2013-11-18 08:52:00
3:52 AM,37.9,32.0,79,29.85,10.0,West,18.4,26.5,N/A,,Clear,270,2013-11-18 09:52:00
4:52 AM,37.0,32.0,82,29.87,10.0,West,17.3,26.5,N/A,,Clear,270,2013-11-18 10:52:00
5:52 AM,36.0,30.9,82,29.88,10.0,West,23.0,-,N/A,,Clear,270,2013-11-18 11:52:00
6:52 AM,35.1,30.0,82,29.91,10.0,West,17.3,-,N/A,,Clear,280,2013-11-18 12:52:00
7:28 AM,35.6,30.2,81,29.92,10.0,West,18.4,26.5,N/A,,Mostly Cloudy,280,2013-11-18 13:28:00
7:52 AM,36.0,30.0,79,29.95,10.0,West,20.7,28.8,N/A,,Overcast,280,2013-11-18 13:52:00
8:52 AM,37.0,28.9,73,29.99,10.0,WNW,21.9,32.2,N/A,,Mostly Cloudy,290,2013-11-18 14:52:00
9:33 AM,37.4,28.4,70,29.99,10.0,WNW,25.3,33.4,N/A,,Scattered Clouds,290,2013-11-18 15:33:00
9:52 AM,39.0,30.9,73,30.01,10.0,WNW,21.9,32.2,N/A,,Scattered Clouds,290,2013-11-18 15:52:00
10:52 AM,39.9,30.9,70,30.03,10.0,West,23.0,28.8,N/A,,Scattered Clouds,280,2013-11-18 16:52:00
11:52 AM,42.1,30.9,65,30.04,10.0,WNW,25.3,32.2,N/A,,Scattered Clouds,290,2013-11-18 17:52:00
12:52 PM,44.1,30.9,60,30.06,10.0,West,25.3,33.4,N/A,,Scattered Clouds,280,2013-11-18 18:52:00
1:52 PM,44.1,28.9,55,30.08,10.0,WNW,19.6,29.9,N/A,,Scattered Clouds,290,2013-11-18 19:52:00
2:52 PM,42.1,26.1,53,30.11,10.0,WNW,24.2,33.4,N/A,,Clear,300,2013-11-18 20:52:00
3:52 PM,39.9,28.0,63,30.14,10.0,WNW,13.8,-,N/A,,Clear,300,2013-11-18 21:52:00
4:52 PM,36.0,27.0,70,30.16,10.0,WNW,9.2,-,N/A,,Clear,300,2013-11-18 22:52:00
5:52 PM,33.1,27.0,78,30.19,10.0,West,6.9,-,N/A,,Clear,280,2013-11-18 23:52:00
6:52 PM,32.0,26.1,79,30.20,10.0,WNW,6.9,-,N/A,,Clear,290,2013-11-19 00:52:00
7:52 PM,32.0,26.1,79,30.23,10.0,WNW,10.4,-,N/A,,Clear,290,2013-11-19 01:52:00
8:52 PM,32.0,26.1,79,30.23,10.0,WNW,10.4,-,N/A,,Clear,290,2013-11-19 02:52:00
9:52 PM,30.9,26.1,82,30.25,10.0,WNW,8.1,-,N/A,,Clear,300,2013-11-19 03:52:00
10:52 PM,30.0,25.0,82,30.27,10.0,NW,5.8,-,N/A,,Clear,310,2013-11-19 04:52:00
11:52 PM,27.0,23.0,85,30.28,10.0,NW,5.8,-,N/A,,Clear,320,2013-11-19 05:52:00